Change the Weather History Date:

Monday, January 7, 2013

  Actual Average Record
Temperature  
Mean Temperature 45 °F 46 °F  
Max Temperature 57 °F 54 °F 69 °F (2012)
Min Temperature 32 °F 37 °F 25 °F (1999)
Degree Days  
Heating Degree Days 20    
Month to date heating degree days 155  
Since 1 July heating degree days 1267  
Cooling Degree Days 0    
Month to date cooling degree days 0  
Year to date cooling degree days 0  
Moisture  
Dew Point 36 °F    
Average Humidity 83    
Maximum Humidity 100    
Minimum Humidity 66    
Precipitation  
Precipitation 0.00 in - 1.89 in (1940)
Month to date precipitation 0.17  
Year to date precipitation 0.17  
Since 1 July precipitation 7.96  
Sea Level Pressure  
Sea Level Pressure 30.18 in    
Wind  
Wind Speed 2 mph (NNE)    
Max Wind Speed 10 mph    
Max Gust Speed 17 mph    
Visibility 4 miles    
Events Fog    
T = Trace of Precipitation, MM = Missing Value Source: NWS Daily Summary

Daily Weather History Graph

Daily Weather History Graph

Search for Another Location

Airport or City:

Trip Planner

Search our weather history database for the weather conditions in past years. The results will help you decide how hot, cold, wet, or windy it might be!

Date:

Astronomy

Jan. 07, 2013 Rise Set
Actual Time 7:26 AM PST 5:05 PM PST
Civil Twilight 6:56 AM PST 5:34 PM PST
Nautical Twilight 6:23 AM PST 6:07 PM PST
Astronomical Twilight 5:52 AM PST 6:39 PM PST
Moon 2:57 AM PST (1/7) 1:20 PM PST (1/7)
Length of Visible Light 10h 37m
Length of Day
9h 39m
Waning Crescent, 21% of the Moon is Illuminated
Jan 7
Waning Crescent
Jan 11
New
Jan 18
First Quarter
Jan 26
Full
Feb 3
Last Quarter

Hourly Weather History & Observations

Time (PST) Temp. Windchill Dew Point Humidity Pressure Visibility Wind Dir Wind Speed Gust Speed Precip Events Conditions
12:01 AM 37.4 °F 34.9 °F 35.6 °F 93% 30.19 in 2.0 mi North 3.5 mph - N/A   Clear
12:08 AM 37.4 °F 34.9 °F 35.6 °F 93% 30.19 in 3.0 mi North 3.5 mph - N/A   Clear
12:16 AM 37.4 °F 34.9 °F 35.6 °F 93% 30.19 in 1.5 mi WNW 3.5 mph - N/A   Clear
12:26 AM 37.4 °F 32.8 °F 35.6 °F 93% 30.19 in 0.8 mi NW 5.8 mph - N/A   Clear
12:33 AM 37.4 °F 32.1 °F 35.6 °F 93% 30.19 in 1.0 mi NW 6.9 mph - N/A   Clear
12:38 AM 35.6 °F 30.7 °F 35.6 °F 100% 30.19 in 0.5 mi North 5.8 mph - N/A Fog Fog
12:45 AM 35.6 °F 32.8 °F 33.8 °F 93% 30.19 in 0.5 mi WNW 3.5 mph - N/A Fog Fog
12:54 AM 37.0 °F 32.4 °F 36.0 °F 96% 30.17 in 1.0 mi North 5.8 mph - N/A   Mist
12:58 AM 37.4 °F 32.8 °F 37.4 °F 100% 30.19 in 2.5 mi North 5.8 mph - N/A   Partly Cloudy
1:08 AM 35.6 °F - 35.6 °F 100% 30.19 in 0.8 mi Calm Calm - N/A   Mist
1:16 AM 33.8 °F - 33.8 °F 100% 30.19 in 0.2 mi Calm Calm - N/A Fog Fog
1:54 AM 34.0 °F - 33.1 °F 96% 30.16 in 0.2 mi Calm Calm - N/A Fog Fog
2:54 AM 34.0 °F - 33.1 °F 96% 30.19 in 0.2 mi Calm Calm - N/A Fog Fog
3:54 AM 33.1 °F - 32.0 °F 96% 30.17 in 0.2 mi Calm Calm - N/A Fog Fog
4:54 AM 33.1 °F - 32.0 °F 96% 30.16 in 0.5 mi Calm Calm - N/A Fog Fog
5:01 AM 33.8 °F - 32.0 °F 93% 30.19 in 1.0 mi Calm Calm - N/A   Mist
5:08 AM 32.0 °F - 30.2 °F 93% 30.19 in 1.2 mi Calm Calm - N/A   Partly Cloudy
5:11 AM 33.8 °F - 32.0 °F 93% 30.19 in 0.8 mi Calm Calm - N/A   Mist
5:19 AM 33.8 °F - 32.0 °F 93% 30.19 in 1.0 mi Calm Calm - N/A   Clear
5:27 AM 33.8 °F 28.6 °F 32.0 °F 93% 30.20 in 0.5 mi ENE 5.8 mph - N/A Fog Fog
5:44 AM 33.8 °F - 33.8 °F 100% 30.20 in 1.0 mi Calm Calm - N/A   Mist
5:51 AM 33.8 °F 30.8 °F 33.8 °F 100% 30.20 in 2.0 mi East 3.5 mph - N/A   Scattered Clouds
5:52 AM 34.0 °F - 33.1 °F 96% 30.17 in 2.5 mi Calm Calm - N/A   Scattered Clouds
6:13 AM 33.8 °F - 32.0 °F 93% 30.20 in 1.0 mi Calm Calm - N/A   Clear
6:21 AM 32.0 °F - 30.2 °F 93% 30.20 in 0.5 mi Calm Calm - N/A Fog Fog
6:31 AM 33.8 °F 28.6 °F 30.2 °F 87% 30.21 in 1.0 mi WSW 5.8 mph - N/A   Clear
6:38 AM 32.0 °F 26.4 °F 30.2 °F 93% 30.22 in 4.0 mi West 5.8 mph - N/A   Clear
6:54 AM 32.0 °F 28.7 °F 30.9 °F 96% 30.19 in 5.0 mi SSE 3.5 mph - N/A   Scattered Clouds
7:54 AM 35.1 °F 30.1 °F 34.0 °F 96% 30.19 in 9.0 mi East 5.8 mph - N/A   Clear
8:54 AM 37.0 °F 34.5 °F 35.1 °F 93% 30.23 in 10.0 mi NNW 3.5 mph - N/A   Clear
9:54 AM 44.1 °F - 41.0 °F 89% 30.23 in 10.0 mi Calm Calm - N/A   Clear
10:54 AM 48.0 °F - 43.0 °F 83% 30.23 in 10.0 mi Calm Calm - N/A   Clear
11:54 AM 48.9 °F - 44.1 °F 83% 30.20 in - Calm Calm - N/A   Clear
12:54 PM 53.1 °F - 45.0 °F 74% 30.17 in 10.0 mi SE 3.5 mph - N/A   Clear
1:54 PM 55.0 °F - 45.0 °F 69% 30.17 in 10.0 mi Calm Calm - N/A   Clear
3:54 PM 55.9 °F - 46.0 °F 69% 30.15 in 10.0 mi East 8.1 mph - N/A   Clear
4:54 PM 51.1 °F - 44.1 °F 77% 30.16 in 10.0 mi East 6.9 mph - N/A   Clear
5:54 PM 50.0 °F - 45.0 °F 83% 30.15 in 10.0 mi East 6.9 mph - N/A   Clear
6:54 PM 48.0 °F - 44.1 °F 86% 30.15 in 10.0 mi Calm Calm - N/A   Clear
7:54 PM 46.0 °F - 42.1 °F 86% 30.15 in 10.0 mi Calm Calm - N/A   Clear
8:54 PM 43.0 °F 41.3 °F 41.0 °F 93% 30.16 in 7.0 mi ESE 3.5 mph - N/A   Clear
9:54 PM 45.0 °F - 42.1 °F 90% 30.16 in 10.0 mi Calm Calm - N/A   Clear
10:54 PM 42.1 °F 40.2 °F 39.0 °F 89% 30.17 in 8.0 mi North 3.5 mph - N/A   Clear
11:54 PM 42.1 °F 40.2 °F 39.9 °F 92% 30.17 in 5.0 mi NE 3.5 mph - N/A   Clear